Location: Gand�
(15.0971°N, 12.6564°W)
Time: 02:53:42
(UTC+00:00)

Meteor 1-31 Rocket - Pass Details

Date: 07 August 2020
Orbit: 520 x 548 km, 97.6° (Epoch: 23 September)

Event Time Altitude Azimuth Distance (km) Brightness Sun altitude
Rises 06:06:14 0° 346° (NNW) 2,667 6.4 -7.4°
Reaches altitude 10° 06:08:56 10° 326° (NW) 1,770 5.3 -6.8°
Maximum altitude 06:11:25 17° 285° (WNW) 1,391 4.4 -6.2°
Drops below altitude 10° 06:13:52 10° 244° (WSW) 1,759 4.7 -5.6°
Enters shadow 06:15:17 - 231° (SW) 2,192 5.3 -5.3°
